Вернуться в каталог

CZ-4 DEB

АктивенSSO
NORAD 26310·DEBRIS·🇨🇳 China

Запущен Oct 14, 1999 с Taiyuan Satellite Launch Center

Loading…

Ближайшие Пролёты (ближайшие 24 часа)

TLE

СвежийSource: Space-Track

Эпоха: Sep 14, 2026, 10:37 UTC

1 26310U 99057GT  26257.44265128  .00000833  00000-0  22315-3 0  9996
2 26310  98.5228 325.7482 0089471 115.0350 258.6538 14.48573847390137

Отслеживайте CZ-4 DEB в реальном времени с AllMySat

Download on the App Store